DECAYED

NOAA 17 DEB, 48614 (Decayed)

Orbit data source: Space-Track

NOAA 17 DEB, 48614 was space debris in SSO originally from a launch on Mon, 24 Jun 2002 UTC launched from the Air Force Western Test Range (AFWTR). Debris objects in space refer to the collection of defunct objects orbiting the Earth. Examples of debris include non-operational satellites, rocket bodies, and fragments generated from explosions, collisions, or faulty payload assembly.

Not visible in the next 10 days
Identifier
48614, 2002-032AF
Orbit
Decayed
Country
Flag of USUS
Related business
Manufacturer
Unknown
Mission
Decayed spacecraft
Bus & Motor
Unknown
Mass
Unknown
Launch date (UTC)
2002-06-24 (24 years ago)
Launch vehicle
Unknown
Launch site
Air Force Western Test Range (AFWTR)
Object type
Payload
Rocket body
Debris
Shape & HBR
Unknown shape, 0.1 m
Radar Cross Section
Medium (>0.1 m² and <1 m²)

Expand to show TLE details & history
Last TLE update: 3 months ago

TLE from 3 months ago
0 NOAA 17 DEB
1 48614U 02032AF  26086.00585938  .00302043  00000-0  87673-2 0  9995
2 48614  98.6392 113.4961 0007439 167.9613 192.1805 15.34218409266954
Epoch: 2026-03-27T00:08Z
TLE epoch observation values (Epoch: 2026-03-27T00:08:26.250Z)
Latitude
-0.00004°
Longitude
-73.05993°
Altitude
471.29 km
Speed
7.628 km/s
True Right ascension
07h 33m 59s
True Declination
0° 00' 00"
Sunlit
Object was in daylight at epoch
Visualization orbit readout
Latitude
Unknown
Longitude
Unknown
Altitude
Unknown
Speed
Unknown
Apparent Right ascension
Unknown
Apparent Declination
Unknown
Sunlit
N/A
Visualization observer readout
Local Sidereal Time
21:36:35
Azimuth
Unknown
Elevation
Unknown
Doppler factor
Unknown
Orbital elements
Apogee altitude
465.334 km
Perigee altitude
455.16 km
Semi-major axis
6,838.384 km
Eccentricity
0.00074
Inclination
98.6392°
RAAN
113.4961°
Arg. of periapsis
167.9613°
True anomaly
192.16253°
Mean anomaly
192.1805°
Eccentric anomaly
192.17151°
Mean motion
3.83807 °/min
Orbital period
93.8 mins
BSTAR
0.0087673
Loading maneuver chart data...
Computing Atmospheric mass density...

Documentation

Showing up to 5 results
|